Probability
0 0 0 0 0 0 0 0 0 0 0 0 0 0 0 0 0 0 0 0 0 0 0 0 0 1 2 3 2 1 0 0 0 0 0 0 0 0 0 0 0 0 0 0
0 0 0 0 0 0 0 0 0 0 0 1 1 0 0 0 0 0 0 0 0 0 0 0 0 0 1 2 2 1 0 0 0 0 0 0 1 1 0 0 0 0 0 0
0 0 0 0 0 0 0 0 0 0 1 2 1 0 0 0 0 0 0 0 0 0 0 0 1 1 1 2 3 3 1 0 0 1 1 1 2 2 1 1 1 0 0 0
0 0 0 0 0 0 0 0 0 0 1 1 1 1 0 0 0 0 0 0 0 0 0 0 2 3 3 3 5 4 1 1 2 3 3 2 3 3 3 2 2 1 1 0
0 0 0 0 0 0 0 0 0 0 0 0 1 1 0 0 0 0 0 0 0 0 0 0 2 5 5 5 5 4 3 4 5 6 5 4 3 2 2 3 3 2 1 1
0 0 0 0 0 0 0 0 0 0 0 0 0 0 0 0 0 0 0 0 0 0 0 0 2 5 6 6 5 5 5 6 7 7 6 4 3 1 2 3 3 3 1 0
0 0 0 0 0 0 0 0 0 0 0 0 0 0 0 0 0 0 0 0 0 0 0 0 1 4 6 5 4 5 6 6 7 6 4 3 2 1 2 3 3 2 1 0
0 0 0 0 0 0 0 0 0 0 0 0 0 0 0 0 0 0 0 0 0 0 0 0 1 3 4 4 4 5 6 7 8 6 4 2 1 1 1 2 2 2 1 0
0 0 0 0 0 0 0 0 0 0 0 0 0 0 0 0 0 0 0 0 0 0 0 0 1 3 4 4 4 5 6 6 7 6 4 3 1 0 0 1 1 1 0 0
0 0 0 0 0 0 0 0 0 0 0 0 0 0 0 0 0 0 0 0 0 0 0 0 1 2 3 5 6 6 6 5 5 4 4 3 1 0 0 0 0 0 0 0
0 0 0 0 0 0 0 0 0 0 0 0 0 0 0 0 0 0 0 0 0 0 0 0 0 1 2 4 5 5 4 3 2 3 3 3 2 1 0 0 0 0 0 0
0 0 0 0 0 0 0 0 0 0 0 0 0 0 0 0 0 0 0 0 0 0 0 0 0 0 1 2 4 3 2 1 1 2 4 4 4 2 1 0 0 0 0 0
0 0 0 0 0 0 0 0 0 0 0 0 0 0 0 0 0 0 0 0 0 0 0 0 0 0 0 1 2 2 1 0 1 2 3 4 3 2 2 1 0 0 0 0
0 0 0 0 0 0 0 0 0 0 0 0 0 0 0 0 0 0 0 0 0 0 0 0 0 0 0 0 1 1 0 0 0 1 1 1 1 1 1 1 0 0 0 0
0 0 0 0 0 0 0 0 0 0 0 0 0 0 0 0 0 0 0 0 0 0 0 0 0 0 0 0 0 0 0 0 0 0 0 0 0 0 0 0 0 0 0 0
0 0 0 0 0 0 0 0 0 0 0 0 0 0 0 0 0 0 0 0 0 0 0 0 0 0 0 0 0 0 0 0 0 0 0 0 0 0 0 0 0 0 0 0
0 0 0 0 0 0 0 0 0 0 0 0 0 0 0 0 0 0 0 0 0 0 0 0 0 0 0 0 0 0 0 0 0 0 0 0 0 0 0 0 0 0 0 0
0 0 0 0 0 0 0 0 0 0 0 0 0 0 0 0 0 0 0 0 0 0 0 0 0 0 0 0 0 0 0 0 0 0 0 0 0 0 0 0 0 0 0 0
0 0 0 0 0 0 0 0 0 0 0 0 0 0 0 0 0 0 0 0 0 0 0 0 0 0 0 0 0 0 0 0 0 0 0 0 0 0 0 0 0 0 0 0
0 0 0 0 0 0 0 0 0 0 0 0 0 0 0 0 0 0 0 0 0 0 0 0 0 0 0 0 0 0 0 0 0 0 0 0 0 0 0 0 0 0 0 0
0 0 0 0 0 0 0 0 0 0 0 0 0 0 0 0 0 0 0 0 0 0 0 0 0 0 0 0 0 0 0 0 0 0 0 0 0 0 0 0 0 0 0 0
0 0 0 0 0 0 0 0 0 0 0 0 0 0 0 0 0 0 0 0 0 0 0 0 0 0 0 0 0 0 0 0 0 0 0 0 0 0 0 0 0 0 0 0
0 0 0 0 0 0 0 0 0 0 0 0 0 0 0 0 0 0 0 0 0 0 0 0 0 0 0 0 0 0 0 0 0 0 0 0 0 0 0 0 0 0 0 0
0 0 0 0 0 0 0 0 0 0 0 0 0 0 0 0 0 0 0 0 0 0 0 0 0 0 0 0 0 0 0 0 0 0 0 0 0 0 0 0 0 0 0 0
0 0 0 0 0 0 0 0 0 0 0 0 0 0 0 0 0 0 0 0 0 0 0 0 0 0 0 0 0 0 0 0 0 0 0 0 0 0 0 0 0 0 0 0
0 0 0 0 0 0 0 0 0 0 0 0 0 0 0 0 0 0 0 0 0 0 0 0 0 0 0 0 0 0 0 0 0 0 0 0 0 0 0 0 0 0 0 0
0 0 0 0 0 0 0 0 0 0 0 0 0 0 0 0 0 0 0 0 0 0 0 0 0 0 0 0 0 0 0 0 0 0 0 0 0 0 0 0 0 0 0 0
Wind_Speed
2 2 2 3 4 4 5 7 7 7 7 7 5 4 2 2 3 3 4 5 7 8 7 7 8 9 10 10 10 10 10 10 10 8 8 8 8 8 8 8 8 8 8 7
1 2 2 3 4 4 5 4 5 4 6 4 3 0 0 1 3 4 5 5 6 7 8 8 9 9 10 10 10 10 10 10 9 8 8 8 8 8 8 8 7 7 8 8
2 2 1 4 5 5 4 3 5 6 6 1 2 1 1 0 1 3 4 4 5 6 7 8 9 9 10 10 9 10 10 9 9 9 9 9 9 8 9 9 8 8 8 8
2 1 5 6 2 1 3 3 3 3 3 2 2 1 2 2 0 1 1 2 3 4 5 6 6 7 7 8 9 10 10 9 9 10 10 8 8 9 9 7 7 7 7 8
3 3 4 3 1 0 2 3 2 2 1 1 0 2 4 5 3 2 1 1 1 3 4 4 5 6 7 7 8 8 9 9 9 10 9 8 9 9 8 7 7 7 6 7
3 3 5 4 2 2 1 3 1 1 1 0 2 1 1 4 4 4 5 4 3 2 3 4 4 7 8 7 7 7 7 7 7 8 8 9 9 7 6 6 7 6 6 6
3 3 5 2 4 1 3 4 2 0 1 1 1 1 1 3 5 5 6 6 5 6 5 2 3 7 8 6 6 5 5 4 4 5 6 6 6 5 5 5 5 5 6 5
2 3 5 3 3 1 3 3 2 1 0 2 3 3 4 4 5 6 7 7 7 7 7 5 5 7 8 5 3 4 5 4 3 3 4 4 4 4 4 5 5 4 4 3
4 4 3 2 2 3 3 3 2 0 1 3 4 4 5 6 6 7 7 7 7 8 8 8 8 7 6 3 4 5 6 4 3 3 2 2 4 4 3 3 3 3 3 3
1 3 3 3 2 2 1 1 1 2 3 4 5 5 6 6 6 7 7 7 7 9 10 8 8 8 6 4 5 6 6 4 4 3 3 3 2 2 2 2 3 2 2 3
2 2 3 3 3 3 3 4 5 7 7 7 7 7 7 7 7 7 7 6 7 7 8 8 8 8 6 5 6 7 6 5 4 3 3 3 3 2 2 1 2 2 2 2
3 3 2 1 3 4 5 7 8 10 10 10 10 10 9 8 7 8 8 8 9 8 8 8 8 8 7 6 6 7 6 5 4 3 3 3 3 3 5 4 4 3 2 1
2 1 2 2 4 6 7 8 10 11 11 10 9 9 9 9 8 8 9 9 8 7 7 7 8 8 7 6 7 7 6 4 3 3 3 3 3 3 2 3 5 5 4 3
2 3 4 4 5 7 9 10 11 11 10 9 9 9 9 9 8 8 7 6 6 7 7 7 9 8 6 6 7 7 5 5 4 3 2 2 3 2 2 2 2 3 4 5
4 4 6 6 7 8 8 10 11 10 10 9 9 9 8 9 8 7 5 5 7 8 8 8 8 7 6 6 7 7 5 4 3 3 3 3 3 3 3 3 2 2 3 4
5 7 8 9 8 8 8 9 10 9 8 8 8 7 7 7 7 7 6 7 8 8 6 7 7 5 5 6 6 5 5 8 6 4 4 4 4 4 3 3 3 3 3 3
7 6 7 8 7 7 7 7 7 7 7 7 6 6 7 8 8 8 7 6 7 6 6 6 5 5 5 5 5 4 4 5 7 5 4 4 4 4 3 3 3 3 3 3
6 6 7 7 8 8 8 7 7 7 6 6 6 7 8 7 6 5 4 5 7 8 7 5 4 5 6 5 4 4 4 4 4 4 4 4 3 3 3 3 3 3 3 3
9 9 8 8 7 8 7 7 6 6 6 7 8 7 6 5 5 5 5 7 7 6 5 5 7 6 6 6 5 4 4 4 4 4 4 4 4 3 3 3 3 3 3 3
10 9 9 8 8 8 8 7 7 7 6 7 8 7 7 5 5 5 7 6 4 2 2 4 5 5 5 5 7 4 4 4 4 4 3 3 3 3 3 3 3 3 3 3
9 9 9 9 8 8 7 7 7 7 5 6 7 6 5 4 4 5 5 5 4 4 5 6 5 4 4 5 6 4 4 4 4 3 3 3 3 3 3 3 3 3 3 4
7 8 8 9 9 7 6 6 6 7 6 6 6 6 6 5 5 5 5 3 3 5 5 4 4 5 6 6 5 5 5 4 4 3 3 3 3 3 3 3 3 4 4 4
6 7 8 8 8 7 6 6 6 6 5 5 5 5 4 3 3 4 3 3 3 6 5 5 6 9 8 6 5 5 5 5 4 4 3 3 3 3 3 4 3 4 4 4
7 7 7 7 7 8 7 5 5 5 5 5 4 4 4 4 4 4 3 4 7 7 6 6 9 10 8 5 5 5 4 4 4 4 4 4 3 3 3 4 4 4 4 5
7 7 7 7 7 5 4 4 5 6 6 5 6 6 5 3 3 3 4 6 7 7 6 7 9 9 6 5 5 5 4 4 4 4 4 4 4 4 4 4 4 4 4 5
5 5 4 4 4 3 3 4 3 3 4 4 4 4 4 4 5 5 5 6 7 7 5 4 5 6 5 5 5 5 4 4 4 4 4 4 4 4 4 4 5 4 4 5
6 5 4 4 4 3 3 3 3 3 3 4 4 3 4 4 5 5 5 5 5 5 4 4 4 4 4 4 4 4 4 4 4 4 4 4 4 4 4 5 4 4 5 5
Wind_Direction
219 235 192 229 238 196 185 188 192 226 233 260 272 269 257 207 178 165 178 187 190 191 190 189 189 190 189 187 183 178 178 185 193 191 188 187 187 188 188 189 194 192 192 197
299 260 218 246 254 223 215 204 219 244 260 263 285 294 46 147 166 182 195 197 196 193 190 192 194 194 191 188 183 177 183 192 189 184 186 190 193 190 188 193 192 188 195 198
234 276 341 262 241 210 201 203 194 219 246 303 315 323 339 80 161 208 212 198 194 197 196 195 197 193 191 187 176 178 187 189 186 185 191 194 193 189 194 195 191 196 200 200
165 109 223 242 283 200 187 225 216 233 266 252 248 312 27 19 28 260 252 218 205 201 201 198 189 184 179 170 172 181 188 191 188 189 195 191 188 193 196 190 191 198 201 203
141 189 261 285 284 209 193 259 231 225 287 352 43 76 32 18 23 22 4 303 229 203 184 169 172 167 154 160 167 177 190 195 192 190 193 190 195 199 194 187 193 198 198 201
148 178 225 248 306 307 142 276 276 202 230 334 62 87 336 6 18 36 38 36 37 63 113 139 161 148 144 153 158 176 190 193 186 183 186 192 197 197 188 187 197 195 202 207
177 212 255 291 309 344 176 252 330 324 204 149 110 154 116 20 26 40 48 48 54 62 70 90 136 134 135 139 163 179 169 160 162 174 185 190 186 181 175 184 190 196 207 214
162 200 251 333 5 97 252 301 326 335 179 113 114 103 82 58 45 44 48 47 56 66 58 50 83 111 116 129 152 129 116 122 142 157 175 179 165 166 167 176 190 203 207 220
189 215 261 310 280 282 259 270 289 137 120 129 114 104 87 71 60 54 52 50 52 63 60 49 51 77 94 96 100 103 105 110 114 118 129 141 156 161 153 163 183 199 200 223
265 280 298 314 312 326 310 206 132 122 120 121 113 103 91 79 69 63 58 56 56 61 62 52 48 56 64 69 92 99 99 98 97 103 100 94 105 124 137 160 180 190 201 219
244 278 336 350 4 14 45 71 86 87 87 95 103 96 89 79 69 67 64 61 62 64 66 57 52 51 46 51 77 85 82 81 79 83 97 99 94 89 113 133 173 186 207 205
226 233 196 299 11 50 74 80 92 92 82 77 87 91 88 80 69 66 62 58 61 55 57 55 55 51 41 44 67 79 73 65 67 70 75 84 87 73 60 73 68 74 97 149
205 121 102 74 52 62 80 83 86 88 91 87 80 84 83 77 66 64 61 59 60 57 55 56 57 49 35 40 61 71 73 68 62 67 71 77 85 88 70 51 58 60 51 53
113 100 84 73 78 78 87 89 88 84 82 85 86 82 80 76 69 64 59 58 66 66 59 56 56 44 27 44 62 65 66 65 67 66 69 73 77 76 78 75 44 22 26 31
56 84 109 104 91 86 90 95 93 88 85 80 80 82 82 80 73 65 58 62 69 67 60 59 56 37 24 49 62 59 54 49 52 54 55 58 60 63 64 66 60 36 25 18
93 93 100 101 98 94 93 96 97 95 91 87 83 82 85 88 82 69 57 59 68 62 53 56 49 28 33 50 58 55 50 54 60 57 54 53 53 54 50 46 43 38 33 12
119 115 112 109 104 99 96 98 101 101 97 93 92 92 89 84 74 65 54 53 65 62 53 52 41 30 42 51 58 56 53 53 57 61 56 53 52 51 48 44 36 25 8 4
108 110 114 118 116 108 100 97 97 97 99 101 99 90 85 83 81 71 62 61 63 53 38 29 38 45 43 44 55 59 61 58 55 58 56 55 51 49 48 45 31 15 355 357
98 101 100 99 105 107 104 100 97 95 94 95 92 86 84 82 81 76 69 64 59 49 15 13 37 49 44 40 53 57 61 62 58 52 51 50 47 39 32 26 17 10 4 3
92 93 95 95 94 98 100 98 95 92 92 98 96 89 79 69 72 76 73 64 43 12 358 34 42 41 37 40 50 54 58 59 56 48 43 41 35 25 19 16 14 9 6 3
97 99 99 97 91 89 95 103 102 98 92 95 99 99 92 77 70 72 73 60 15 18 40 46 47 41 38 43 49 54 56 55 51 45 39 34 27 20 14 12 9 5 1 356
91 94 96 96 93 85 79 85 94 97 94 90 91 93 89 78 70 65 57 54 28 39 47 46 45 50 53 53 51 51 51 49 43 35 28 23 16 7 1 357 355 352 348 344
90 95 95 96 96 90 77 72 78 86 88 87 89 91 89 81 71 80 62 26 43 54 53 48 49 49 49 49 47 46 43 39 33 26 19 11 3 359 353 348 344 341 339 338
87 85 86 89 90 86 77 64 68 74 78 75 72 80 92 88 63 52 74 63 60 63 59 52 51 49 48 47 43 41 36 31 26 21 16 13 8 1 355 350 345 342 340 339
88 86 86 89 88 88 88 79 71 68 71 66 60 56 55 67 84 71 64 65 67 66 59 48 47 46 46 44 44 40 33 27 22 19 17 12 6 359 354 352 349 344 340 336
82 81 81 86 95 97 91 86 81 75 83 80 63 55 59 64 73 72 69 65 62 61 56 45 38 39 39 39 39 36 30 24 24 22 15 8 4 1 354 353 351 344 337 334
77 75 75 65 55 65 80 86 90 84 90 101 88 67 67 69 68 69 68 64 58 53 48 42 38 37 36 34 32 27 23 19 16 16 11 5 1 355 349 347 343 337 333 332